Wind_Speed
28 25 22 18 19 19 20 21 21 20 20 23 24 23 23 22 21 21 20 20 19 18 17 17 17 15 15 15 14 14 14 15 14 15 15 15 15 15 15 15 16 16 18 19
31 29 27 23 21 19 20 20 21 22 23 24 26 25 24 23 24 23 22 22 21 20 19 19 19 18 17 17 17 17 16 16 16 16 16 16 16 17 17 16 17 17 18 19
33 28 28 28 25 24 22 21 21 21 24 27 27 28 28 27 25 24 24 24 23 23 22 20 20 20 19 19 19 18 18 17 17 16 17 18 18 18 19 19 19 19 19 20
34 31 31 29 26 26 26 25 24 26 28 29 32 31 27 25 26 26 26 25 25 24 23 22 21 21 21 21 20 20 20 20 19 19 19 19 19 20 20 20 21 21 21 21
35 33 32 28 27 27 27 27 28 28 31 31 33 33 31 29 28 28 27 26 26 26 25 24 23 22 22 22 22 22 22 22 22 21 21 20 20 20 21 21 22 22 22 22
37 34 30 26 26 27 29 30 32 32 33 34 33 34 33 29 28 28 28 28 27 26 26 25 25 24 24 24 24 24 24 23 23 22 22 21 21 21 21 22 23 23 23 23
39 37 33 31 31 31 32 33 33 33 35 35 34 34 32 31 30 29 28 28 27 27 27 26 26 26 25 25 25 25 24 24 24 23 23 23 23 22 22 22 22 22 22 23
39 38 35 35 36 37 37 36 34 34 35 34 34 34 33 32 32 31 30 29 29 29 28 28 27 27 27 26 26 26 26 26 26 25 24 24 23 22 22 22 22 23 23 24
35 36 39 40 40 41 40 39 37 36 35 35 35 35 34 34 33 32 32 31 31 30 30 29 29 29 29 29 28 28 27 27 27 26 25 24 24 24 24 24 24 24 24 25
35 38 40 41 41 43 42 40 39 37 37 36 36 35 35 34 35 35 35 34 33 32 32 32 31 31 30 30 30 29 29 28 27 26 26 26 26 26 25 25 25 25 25 26
38 39 40 40 40 41 41 41 40 39 38 38 38 37 37 36 36 36 36 35 35 34 34 34 33 33 32 31 31 30 30 29 28 27 27 27 27 27 27 26 26 26 26 27
41 41 42 40 38 38 40 41 40 40 39 38 38 38 38 38 38 38 37 37 36 35 35 35 34 33 33 32 31 31 31 30 29 29 28 28 28 28 27 27 26 27 27 27
42 42 41 41 40 40 40 40 39 39 39 38 38 39 38 38 38 38 37 37 37 36 35 35 34 34 33 32 32 31 31 30 29 28 28 28 28 28 27 27 28 27 27 27
40 39 39 39 39 39 38 38 38 38 38 38 38 38 38 38 37 38 38 37 37 36 35 35 34 33 33 32 32 32 31 30 29 29 28 28 28 28 28 27 27 27 26 26
40 39 38 37 37 37 38 38 38 37 37 38 37 37 37 37 37 38 38 38 37 36 35 35 34 34 33 32 32 31 30 29 28 28 28 28 28 28 28 27 26 26 26 27
36 35 35 35 36 36 35 35 35 35 36 36 35 36 35 35 35 36 36 36 35 35 34 34 34 33 32 31 31 30 29 28 27 27 27 27 27 27 26 26 26 26 26 26
33 33 32 32 33 34 34 34 34 33 33 33 34 34 33 33 33 33 33 32 33 32 31 31 30 30 30 30 29 28 27 27 26 26 26 26 25 25 25 24 25 25 25 25
33 32 32 31 31 31 31 31 32 31 31 31 31 32 31 31 31 31 30 30 30 30 29 28 27 27 27 27 27 26 25 25 25 25 24 24 23 23 24 24 24 24 24 25
32 31 31 31 29 28 28 29 30 30 30 30 29 29 29 28 28 27 27 27 27 27 26 25 25 24 24 24 24 23 23 22 21 21 21 21 22 22 22 23 23 24 24 25
29 28 28 27 27 27 27 27 27 27 27 26 26 26 26 25 24 24 23 23 23 22 21 21 21 21 21 22 21 20 18 17 17 17 18 19 21 21 22 22 24 24 24 25
27 26 25 25 25 25 24 24 24 25 24 24 23 22 22 21 21 20 20 19 19 19 18 18 17 17 17 17 16 16 16 16 16 17 18 18 19 20 21 22 22 23 23 24
23 23 22 23 22 22 21 21 21 21 20 20 20 19 18 18 18 17 17 16 15 15 14 14 14 13 13 13 13 14 14 15 16 17 18 18 19 20 21 21 21 22 22 23
20 20 20 20 20 19 19 19 18 18 18 17 17 16 15 15 15 15 15 14 14 13 12 12 12 12 12 12 12 13 13 14 15 16 18 19 20 20 21 21 21 22 23 24
16 17 18 17 17 17 16 15 15 15 15 15 15 15 14 14 13 13 12 12 12 11 11 11 11 12 13 13 14 14 15 16 17 18 19 20 20 21 21 22 23 24 25 26
12 13 13 13 14 14 14 13 13 13 13 13 13 13 13 12 12 11 10 10 10 10 10 11 12 12 14 15 16 17 18 19 19 19 20 21 22 23 24 25 26 26 27 27
10 10 11 10 10 10 10 11 11 11 11 11 10 10 9 10 9 9 10 11 11 12 13 13 14 16 16 17 18 18 19 20 21 22 23 23 24 25 26 27 27 28 28 28
8 9 9 8 8 8 8 8 8 8 8 8 8 8 8 8 9 9 10 11 12 13 14 14 15 16 17 18 19 20 21 22 23 24 25 25 26 27 28 28 29 29 29 30
Wind_Direction
226 218 227 242 245 241 239 239 240 243 248 260 263 267 271 276 281 286 287 288 291 294 293 290 287 287 291 293 291 290 291 288 284 280 278 278 278 275 274 273 272 267 262 260
231 224 223 232 240 241 241 244 244 243 248 255 262 266 268 274 281 283 286 286 286 289 288 286 284 285 285 288 290 289 288 287 286 281 279 278 279 277 275 275 273 270 269 264
233 231 229 231 233 237 240 244 246 247 250 251 256 261 268 270 274 280 283 284 283 285 285 285 283 283 285 286 286 287 287 287 286 286 281 279 277 277 276 276 275 271 270 266
234 230 231 232 233 239 241 241 240 243 246 248 254 260 263 269 272 276 280 280 281 282 283 283 282 282 283 285 285 285 285 285 285 286 287 285 282 280 279 278 276 274 271 270
235 234 237 235 233 233 236 238 238 240 245 248 254 259 263 268 270 275 277 277 278 279 280 281 280 281 282 283 283 284 285 284 284 284 284 285 283 282 281 278 276 277 275 272
236 232 232 235 237 236 238 239 241 242 246 249 253 258 263 266 269 273 274 274 276 278 279 279 279 280 281 281 282 283 283 283 284 283 282 282 282 281 280 277 276 278 278 277
237 236 235 232 234 235 233 235 240 243 248 252 255 257 263 266 268 269 270 272 274 276 277 277 278 278 279 280 281 283 283 282 283 282 280 281 281 281 281 280 280 280 280 278
238 236 234 233 235 237 238 239 242 248 253 256 257 259 260 264 266 266 268 271 273 274 276 276 277 278 279 280 281 281 282 282 283 282 280 280 281 280 281 281 282 281 280 278
238 237 234 234 237 240 242 246 248 251 255 256 257 259 261 262 263 264 267 270 272 273 274 275 277 278 278 279 280 280 281 281 281 279 280 279 279 280 281 282 281 279 279 277
232 234 236 236 239 242 244 246 249 252 254 255 257 258 261 262 262 264 266 268 269 271 272 274 275 277 278 278 278 279 279 279 279 279 279 278 278 279 279 281 280 278 279 279
229 234 239 240 243 243 245 248 250 253 254 256 257 257 259 261 263 264 265 266 268 269 271 273 274 275 276 276 277 277 277 278 277 276 276 276 276 277 278 279 280 278 278 279
233 237 240 242 244 247 249 250 251 253 254 256 257 258 259 260 262 263 263 265 266 267 269 271 272 272 273 274 275 276 275 274 273 274 275 274 275 275 275 276 278 279 278 279
235 238 242 243 245 249 250 250 251 253 254 256 256 257 259 260 261 261 263 265 265 266 267 269 270 270 270 271 273 274 273 273 272 272 273 274 274 272 273 275 276 277 279 281
237 241 242 244 245 247 249 250 252 254 254 255 256 256 257 259 260 262 263 264 264 265 267 268 269 269 268 269 270 271 271 271 271 271 271 271 271 272 273 272 273 275 278 280
240 242 243 244 246 248 250 251 252 253 254 254 255 257 258 258 260 261 262 263 263 264 265 267 268 267 267 267 268 268 269 270 269 268 269 269 270 271 271 271 272 274 278 280
238 241 243 244 246 248 250 250 251 253 254 255 256 258 259 260 261 262 263 263 264 264 265 266 267 266 265 267 267 267 268 267 267 266 267 269 269 268 269 270 272 275 278 281
238 240 243 245 247 249 250 251 252 253 254 256 257 258 259 261 262 263 264 264 263 263 264 265 265 264 263 264 265 266 266 266 265 265 265 266 267 268 269 271 274 276 279 282
240 242 244 248 249 249 251 253 252 253 254 255 257 258 259 261 263 263 262 262 262 262 263 264 262 261 261 262 264 265 264 264 263 262 264 265 266 268 270 272 275 279 281 283
239 243 246 247 248 249 250 252 252 252 254 256 257 257 258 260 261 261 260 260 261 260 261 260 259 259 260 262 263 264 263 261 260 259 259 261 264 268 271 275 278 279 280 283
236 239 242 243 245 247 250 251 249 249 252 255 256 256 256 257 258 258 258 258 258 257 258 258 258 258 260 260 259 258 257 256 256 258 261 264 266 269 273 277 278 278 280 283
234 236 237 240 242 245 249 249 248 248 249 250 251 253 253 253 253 254 254 254 254 255 256 255 254 255 254 253 252 254 255 256 258 263 267 268 269 272 276 279 281 281 282 284
231 232 234 237 240 243 244 242 241 242 243 245 246 246 247 247 248 248 248 250 250 250 250 248 248 249 249 250 253 254 254 258 262 266 268 270 274 277 280 282 283 285 287 289
228 229 232 234 237 238 237 235 235 237 239 239 239 239 240 241 241 242 243 242 241 240 240 242 245 245 248 252 255 258 263 268 271 274 276 279 280 283 284 286 288 289 290 290
219 221 223 226 227 227 227 228 230 233 232 232 233 234 236 235 234 236 239 236 234 235 239 244 247 249 254 260 265 269 273 276 278 281 282 284 285 287 288 289 290 290 290 290
203 208 211 212 212 214 218 221 224 226 226 228 231 231 231 229 231 232 234 236 238 243 249 255 259 263 267 270 272 275 278 281 282 284 286 287 288 289 289 290 290 290 289 289
181 188 190 193 196 203 209 215 218 221 221 221 221 222 223 225 227 230 236 241 247 253 258 263 268 272 274 275 276 279 281 283 285 286 287 287 288 289 290 289 289 289 289 289
168 173 178 182 191 198 201 203 204 205 205 209 218 222 227 231 234 240 247 253 260 265 269 271 274 276 277 279 281 282 283 285 287 288 288 287 288 289 290 290 289 289 289 289
Height
5838 5842 5845 5847 5848 5850 5852 5854 5857 5858 5858 5856 5853 5854 5852 5852 5853 5854 5853 5853 5852 5850 5849 5850 5850 5849 5848 5848 5847 5847 5846 5846 5846 5845 5845 5845 5846 5846 5846 5846 5846 5846 5847 5848
5830 5835 5839 5841 5844 5846 5848 5850 5851 5852 5852 5850 5848 5848 5848 5847 5848 5849 5849 5849 5848 5848 5847 5847 5846 5846 5845 5845 5844 5844 5843 5843 5842 5842 5842 5842 5842 5842 5842 5842 5842 5843 5843 5843
5822 5828 5832 5834 5838 5841 5843 5845 5846 5847 5847 5844 5842 5843 5843 5843 5844 5845 5845 5845 5845 5844 5844 5843 5843 5842 5842 5841 5841 5840 5840 5839 5839 5838 5838 5837 5837 5838 5838 5838 5838 5839 5839 5839
5815 5821 5822 5830 5833 5835 5837 5838 5840 5840 5839 5838 5837 5837 5837 5839 5840 5840 5840 5840 5840 5839 5839 5839 5838 5838 5837 5837 5837 5836 5836 5835 5834 5834 5834 5833 5833 5833 5833 5833 5833 5833 5833 5834
5807 5811 5815 5821 5824 5827 5829 5830 5831 5832 5831 5831 5831 5832 5833 5835 5835 5834 5834 5835 5835 5834 5834 5834 5834 5833 5833 5832 5832 5831 5831 5830 5829 5829 5829 5828 5828 5827 5827 5827 5827 5827 5827 5827
5799 5803 5809 5815 5816 5818 5821 5822 5823 5824 5823 5824 5826 5826 5827 5828 5828 5828 5828 5828 5829 5829 5829 5828 5828 5828 5828 5827 5827 5826 5825 5825 5824 5823 5823 5823 5822 5822 5822 5821 5821 5821 5821 5821
5790 5794 5800 5805 5806 5808 5812 5813 5813 5815 5815 5816 5818 5819 5820 5821 5822 5822 5822 5822 5822 5823 5823 5823 5822 5822 5822 5821 5821 5820 5819 5819 5818 5818 5817 5817 5817 5816 5816 5815 5815 5815 5815 5815
5782 5786 5793 5794 5796 5798 5799 5802 5805 5806 5808 5810 5811 5811 5812 5814 5815 5815 5815 5815 5816 5816 5816 5816 5816 5816 5816 5815 5815 5814 5814 5813 5813 5812 5812 5811 5811 5811 5810 5810 5809 5809 5809 5809
5773 5778 5779 5783 5786 5788 5791 5795 5797 5799 5801 5802 5803 5804 5805 5805 5806 5807 5808 5809 5809 5809 5809 5809 5809 5809 5809 5809 5808 5808 5807 5807 5806 5806 5805 5804 5804 5804 5804 5804 5803 5803 5803 5803
5763 5765 5768 5772 5776 5779 5782 5786 5789 5791 5792 5794 5794 5795 5796 5797 5798 5799 5800 5801 5801 5802 5802 5802 5802 5802 5802 5801 5801 5801 5800 5800 5799 5799 5799 5798 5798 5798 5798 5798 5797 5797 5796 5796
5754 5757 5759 5763 5767 5770 5773 5776 5779 5782 5783 5785 5786 5787 5788 5788 5789 5791 5792 5792 5793 5793 5794 5794 5794 5794 5794 5794 5793 5793 5793 5792 5792 5792 5792 5792 5791 5791 5791 5791 5790 5790 5789 5789
5745 5747 5751 5755 5758 5761 5765 5767 5770 5772 5774 5776 5777 5778 5780 5780 5781 5782 5783 5784 5784 5785 5785 5785 5785 5786 5786 5785 5785 5785 5785 5785 5785 5784 5784 5784 5784 5784 5783 5783 5783 5783 5782 5782
5735 5739 5743 5747 5750 5752 5754 5756 5759 5762 5765 5767 5768 5769 5770 5771 5771 5772 5773 5774 5775 5776 5776 5777 5777 5777 5777 5777 5777 5777 5776 5777 5777 5777 5776 5776 5776 5776 5776 5776 5775 5775 5775 5774
5728 5731 5734 5738 5740 5742 5745 5747 5750 5753 5755 5757 5758 5759 5760 5761 5762 5763 5764 5765 5765 5766 5767 5767 5767 5767 5768 5768 5768 5768 5768 5768 5769 5769 5769 5769 5769 5768 5768 5768 5768 5767 5767 5767
5720 5723 5726 5729 5731 5734 5736 5739 5742 5744 5745 5747 5748 5749 5750 5752 5753 5754 5755 5755 5756 5757 5757 5758 5758 5758 5759 5759 5759 5760 5760 5760 5760 5760 5761 5761 5761 5761 5761 5760 5760 5760 5760 5759
5712 5715 5718 5720 5723 5726 5728 5730 5732 5734 5736 5737 5739 5740 5741 5742 5744 5744 5745 5746 5746 5747 5748 5748 5749 5749 5749 5750 5751 5751 5751 5752 5752 5753 5753 5753 5753 5753 5753 5753 5753 5753 5752 5752
5704 5707 5709 5712 5714 5717 5719 5722 5724 5726 5727 5729 5730 5731 5733 5734 5735 5735 5736 5736 5737 5738 5738 5739 5740 5740 5741 5741 5742 5743 5743 5744 5744 5745 5745 5745 5745 5746 5746 5745 5745 5745 5745 5744
5696 5699 5701 5704 5707 5709 5711 5713 5715 5717 5719 5720 5721 5723 5724 5725 5726 5726 5727 5728 5729 5729 5730 5731 5731 5732 5733 5734 5734 5734 5735 5736 5736 5737 5737 5738 5738 5739 5739 5739 5739 5738 5737 5736
5689 5691 5694 5696 5699 5701 5703 5705 5707 5709 5711 5712 5714 5715 5716 5717 5718 5719 5719 5720 5721 5722 5722 5723 5724 5725 5725 5726 5727 5727 5728 5728 5729 5730 5731 5731 5732 5732 5732 5731 5731 5730 5730 5729
5682 5685 5687 5690 5692 5694 5696 5698 5700 5702 5703 5705 5706 5708 5709 5710 5711 5712 5712 5713 5714 5715 5715 5716 5717 5718 5719 5720 5720 5721 5722 5723 5723 5724 5725 5725 5725 5725 5725 5725 5724 5724 5723 5722
5676 5678 5681 5684 5686 5688 5690 5692 5693 5695 5697 5698 5700 5701 5703 5704 5705 5706 5707 5708 5709 5709 5710 5711 5712 5713 5713 5714 5715 5716 5717 5718 5718 5719 5719 5719 5719 5718 5718 5718 5717 5716 5715 5714
5670 5673 5676 5678 5680 5682 5684 5686 5688 5689 5691 5693 5695 5696 5698 5699 5700 5701 5702 5703 5704 5705 5706 5707 5708 5708 5709 5710 5711 5711 5712 5713 5713 5714 5714 5713 5713 5712 5712 5711 5710 5709 5707 5706
5665 5668 5671 5673 5676 5678 5679 5681 5683 5685 5687 5689 5691 5692 5693 5695 5696 5697 5698 5699 5700 5701 5703 5704 5704 5705 5706 5707 5707 5708 5708 5708 5708 5708 5708 5707 5706 5706 5705 5704 5702 5701 5700 5698
5661 5664 5667 5670 5672 5674 5676 5678 5680 5682 5684 5686 5687 5689 5690 5692 5693 5694 5695 5696 5697 5699 5700 5700 5701 5702 5702 5703 5703 5704 5704 5704 5703 5702 5702 5701 5700 5699 5698 5696 5695 5694 5692 5690
5659 5662 5665 5667 5670 5672 5674 5676 5678 5680 5682 5683 5685 5686 5688 5689 5691 5692 5693 5694 5695 5696 5697 5698 5698 5698 5699 5699 5699 5699 5698 5698 5697 5696 5695 5694 5693 5692 5690 5689 5687 5686 5684 5682
5660 5662 5665 5667 5669 5671 5673 5675 5677 5678 5680 5681 5683 5684 5686 5687 5688 5690 5691 5692 5693 5693 5694 5694 5694 5694 5694 5694 5693 5693 5692 5692 5691 5690 5688 5687 5686 5684 5683 5681 5679 5677 5676 5674
5661 5663 5665 5667 5669 5671 5673 5674 5676 5678 5679 5681 5682 5683 5684 5685 5687 5688 5688 5689 5689 5690 5690 5690 5690 5689 5689 5688 5687 5687 5686 5685 5684 5682 5681 5679 5678 5676 5674 5672 5671 5669 5667 5665